FENGYUN 1C DEB, 33650

Orbit data source: Space-Track

FENGYUN 1C DEB, 33650 is space debris in SSO originally from a launch on Mon, 10 May 1999 UTC launched from the Taiyaun Space Center, China (TSC). Fengyun 1C debris stems from the Chinese weather satellite Fengyun-1C, which was intentionally destroyed by a Chinese anti-satellite missile in 2007. This event dramatically increased the amount of space debris, with thousands of trackable fragments posing hazards to satellites and human spaceflight. The Fengyun 1C debris cloud has become a focal point in discussions about space sustainability and the need for international regulations to prevent the creation of new debris.

Loading next visibility...
Identifier
33650, 1999-025DEK
Orbit
SSO
Country
Flag of CNCN / PRC
Related business
Manufacturer
Unknown
Mission
Spacecraft
Bus & Motor
Unknown
Mass
Unknown
Launch date (UTC)
1999-05-10 (27 years ago)
Launch vehicle
Unknown
Launch site
Taiyaun Space Center, China (TSC)
Object type
Payload
Rocket body
Debris
Shape & HBR
Unknown shape, 0.1 m
Radar Cross Section
Small (<0.1 m²)

Expand to show TLE details & history
Last TLE update: 3 days ago

TLE from 3 days ago
0 FENGYUN 1C DEB
1 33650U 99025DEK 26251.91230670  .00000992  00000-0  76528-3 0  9997
2 33650  99.0127  53.1314 0150486  64.1486 297.5105 13.89991808725613
Epoch: 2026-09-08T21:53Z
TLE epoch observation values (Epoch: 2026-09-08T21:53:43.298Z)
Latitude
-0°
Longitude
96.72908°
Altitude
882.039 km
Speed
7.436 km/s
True Right ascension
03h 32m 31s
True Declination
0° 00' 00"
Sunlit
Object was in daylight at epoch
Visualization orbit readout
Latitude
Unknown
Longitude
Unknown
Altitude
Unknown
Speed
Unknown
Apparent Right ascension
Unknown
Apparent Declination
Unknown
Sunlit
N/A
Visualization observer readout
Local Sidereal Time
07:32:39
Azimuth
Unknown
Elevation
Unknown
Doppler factor
Unknown
Orbital elements
Apogee altitude
1,035.787 km
Perigee altitude
815.957 km
Semi-major axis
7,304.009 km
Eccentricity
0.01505
Inclination
99.0127°
RAAN
53.1314°
Arg. of periapsis
64.1486°
True anomaly
295.96783°
Mean anomaly
297.5105°
Eccentric anomaly
296.74049°
Mean motion
3.47697 °/min
Orbital period
103.54 mins
BSTAR
0.00076528
Loading maneuver chart data...
Computing Atmospheric mass density...

Documentation

Showing up to 5 results
|